;"�bergabe vorgelagertes Netz 
zzgl. dezentrale Erzeugungsanlagen
abzgl. der R�ckspeisungen ins EWE Netz"
Arbeit;473.533.125
H�chstleistung;86.969
Ab Zeit;25.01.2022 11:00
01.01.2022 00:00;24.563
01.01.2022 00:15;16.173
01.01.2022 00:30;16.741
01.01.2022 00:45;21.781
01.01.2022 01:00;20.350
01.01.2022 01:15;21.130
01.01.2022 01:30;22.945
01.01.2022 01:45;18.607
01.01.2022 02:00;19.075
01.01.2022 02:15;16.838
01.01.2022 02:30;18.085
01.01.2022 02:45;16.135
01.01.2022 03:00;19.163
01.01.2022 03:15;18.957
01.01.2022 03:30;17.423
01.01.2022 03:45;20.402
01.01.2022 04:00;26.098
01.01.2022 04:15;23.221
01.01.2022 04:30;25.551
01.01.2022 04:45;22.885
01.01.2022 05:00;25.260
01.01.2022 05:15;20.749
01.01.2022 05:30;11.112
01.01.2022 05:45;21.311
01.01.2022 06:00;19.717
01.01.2022 06:15;23.052
01.01.2022 06:30;24.216
01.01.2022 06:45;30.758
01.01.2022 07:00;34.684
01.01.2022 07:15;40.078
01.01.2022 07:30;32.932
01.01.2022 07:45;29.524
01.01.2022 08:00;38.210
01.01.2022 08:15;38.142
01.01.2022 08:30;38.399
01.01.2022 08:45;32.596
01.01.2022 09:00;38.844
01.01.2022 09:15;36.008
01.01.2022 09:30;35.620
01.01.2022 09:45;40.396
01.01.2022 10:00;45.228
01.01.2022 10:15;45.866
01.01.2022 10:30;47.859
01.01.2022 10:45;43.749
01.01.2022 11:00;45.108
01.01.2022 11:15;50.110
01.01.2022 11:30;51.152
01.01.2022 11:45;52.381
01.01.2022 12:00;52.943
01.01.2022 12:15;52.781
01.01.2022 12:30;53.309
01.01.2022 12:45;52.402
01.01.2022 13:00;51.496
01.01.2022 13:15;50.221
01.01.2022 13:30;51.264
01.01.2022 13:45;49.443
01.01.2022 14:00;48.031
01.01.2022 14:15;49.064
01.01.2022 14:30;49.780
01.01.2022 14:45;50.431
01.01.2022 15:00;49.913
01.01.2022 15:15;49.123
01.01.2022 15:30;47.595
01.01.2022 15:45;49.888
01.01.2022 16:00;51.871
01.01.2022 16:15;50.874
01.01.2022 16:30;52.161
01.01.2022 16:45;52.630
01.01.2022 17:00;54.802
01.01.2022 17:15;54.270
01.01.2022 17:30;54.371
01.01.2022 17:45;54.695
01.01.2022 18:00;54.031
01.01.2022 18:15;54.052
01.01.2022 18:30;53.401
01.01.2022 18:45;52.455
01.01.2022 19:00;53.319
01.01.2022 19:15;51.565
01.01.2022 19:30;50.369
01.01.2022 19:45;52.053
01.01.2022 20:00;53.129
01.01.2022 20:15;51.350
01.01.2022 20:30;49.329
01.01.2022 20:45;45.469
01.01.2022 21:00;41.660
01.01.2022 21:15;45.218
01.01.2022 21:30;43.873
01.01.2022 21:45;47.889
01.01.2022 22:00;48.281
01.01.2022 22:15;41.376
01.01.2022 22:30;36.926
01.01.2022 22:45;36.085
01.01.2022 23:00;41.017
01.01.2022 23:15;41.623
01.01.2022 23:30;39.675
01.01.2022 23:45;39.391
02.01.2022 00:00;38.288
02.01.2022 00:15;36.867
02.01.2022 00:30;32.067
02.01.2022 00:45;33.400
02.01.2022 01:00;31.509
02.01.2022 01:15;35.461
02.01.2022 01:30;36.146
02.01.2022 01:45;32.988
02.01.2022 02:00;32.883
02.01.2022 02:15;36.623
02.01.2022 02:30;33.650
02.01.2022 02:45;34.688
02.01.2022 03:00;31.865
02.01.2022 03:15;28.265
02.01.2022 03:30;30.025
02.01.2022 03:45;29.858
02.01.2022 04:00;31.259
02.01.2022 04:15;31.801
02.01.2022 04:30;34.926
02.01.2022 04:45;32.420
02.01.2022 05:00;37.234
02.01.2022 05:15;36.567
02.01.2022 05:30;38.591
02.01.2022 05:45;38.776
02.01.2022 06:00;39.601
02.01.2022 06:15;40.049
02.01.2022 06:30;38.601
02.01.2022 06:45;40.727
02.01.2022 07:00;40.506
02.01.2022 07:15;41.303
02.01.2022 07:30;36.647
02.01.2022 07:45;42.356
02.01.2022 08:00;40.756
02.01.2022 08:15;45.143
02.01.2022 08:30;46.488
02.01.2022 08:45;45.817
02.01.2022 09:00;46.420
02.01.2022 09:15;45.991
02.01.2022 09:30;44.634
02.01.2022 09:45;46.436
02.01.2022 10:00;47.012
02.01.2022 10:15;47.623
02.01.2022 10:30;47.842
02.01.2022 10:45;49.310
02.01.2022 11:00;52.988
02.01.2022 11:15;51.113
02.01.2022 11:30;51.928
02.01.2022 11:45;53.439
02.01.2022 12:00;54.330
02.01.2022 12:15;54.586
02.01.2022 12:30;54.096
02.01.2022 12:45;54.628
02.01.2022 13:00;53.308
02.01.2022 13:15;53.586
02.01.2022 13:30;53.143
02.01.2022 13:45;52.096
02.01.2022 14:00;53.194
02.01.2022 14:15;53.700
02.01.2022 14:30;53.171
02.01.2022 14:45;52.872
02.01.2022 15:00;53.014
02.01.2022 15:15;52.886
02.01.2022 15:30;53.240
02.01.2022 15:45;53.223
02.01.2022 16:00;53.115
02.01.2022 16:15;53.939
02.01.2022 16:30;54.283
02.01.2022 16:45;54.606
02.01.2022 17:00;55.156
02.01.2022 17:15;55.745
02.01.2022 17:30;53.850
02.01.2022 17:45;56.528
02.01.2022 18:00;56.181
02.01.2022 18:15;56.513
02.01.2022 18:30;56.874
02.01.2022 18:45;56.202
02.01.2022 19:00;54.566
02.01.2022 19:15;53.918
02.01.2022 19:30;53.430
02.01.2022 19:45;51.492
02.01.2022 20:00;51.153
02.01.2022 20:15;51.339
02.01.2022 20:30;52.196
02.01.2022 20:45;52.422
02.01.2022 21:00;49.717
02.01.2022 21:15;51.800
02.01.2022 21:30;52.908
02.01.2022 21:45;53.269
02.01.2022 22:00;51.066
02.01.2022 22:15;51.093
02.01.2022 22:30;51.138
02.01.2022 22:45;50.463
02.01.2022 23:00;50.929
02.01.2022 23:15;51.090
02.01.2022 23:30;49.138
02.01.2022 23:45;47.436
03.01.2022 00:00;48.657
03.01.2022 00:15;46.782
03.01.2022 00:30;45.721
03.01.2022 00:45;41.824
03.01.2022 01:00;40.098
03.01.2022 01:15;40.724
03.01.2022 01:30;33.464
03.01.2022 01:45;29.063
03.01.2022 02:00;29.677
03.01.2022 02:15;29.810
03.01.2022 02:30;29.828
03.01.2022 02:45;29.517
03.01.2022 03:00;30.670
03.01.2022 03:15;28.991
03.01.2022 03:30;27.840
03.01.2022 03:45;29.761
03.01.2022 04:00;31.018
03.01.2022 04:15;30.603
03.01.2022 04:30;29.872
03.01.2022 04:45;31.447
03.01.2022 05:00;33.444
03.01.2022 05:15;35.262
03.01.2022 05:30;39.811
03.01.2022 05:45;40.251
03.01.2022 06:00;32.833
03.01.2022 06:15;37.688
03.01.2022 06:30;36.987
03.01.2022 06:45;37.293
03.01.2022 07:00;45.797
03.01.2022 07:15;46.680
03.01.2022 07:30;53.349
03.01.2022 07:45;58.670
03.01.2022 08:00;61.557
03.01.2022 08:15;63.542
03.01.2022 08:30;63.300
03.01.2022 08:45;64.292
03.01.2022 09:00;63.819
03.01.2022 09:15;65.718
03.01.2022 09:30;64.436
03.01.2022 09:45;64.616
03.01.2022 10:00;67.307
03.01.2022 10:15;68.522
03.01.2022 10:30;68.634
03.01.2022 10:45;68.035
03.01.2022 11:00;68.799
03.01.2022 11:15;70.195
03.01.2022 11:30;70.032
03.01.2022 11:45;70.961
03.01.2022 12:00;71.078
03.01.2022 12:15;70.448
03.01.2022 12:30;71.085
03.01.2022 12:45;69.416
03.01.2022 13:00;71.838
03.01.2022 13:15;70.978
03.01.2022 13:30;70.674
03.01.2022 13:45;70.786
03.01.2022 14:00;70.607
03.01.2022 14:15;68.764
03.01.2022 14:30;69.043
03.01.2022 14:45;69.590
03.01.2022 15:00;68.659
03.01.2022 15:15;69.049
03.01.2022 15:30;70.703
03.01.2022 15:45;68.921
03.01.2022 16:00;66.903
03.01.2022 16:15;67.653
03.01.2022 16:30;70.053
03.01.2022 16:45;69.263
03.01.2022 17:00;68.114
03.01.2022 17:15;70.656
03.01.2022 17:30;70.077
03.01.2022 17:45;69.917
03.01.2022 18:00;69.027
03.01.2022 18:15;68.429
03.01.2022 18:30;68.193
03.01.2022 18:45;67.257
03.01.2022 19:00;65.187
03.01.2022 19:15;65.014
03.01.2022 19:30;63.740
03.01.2022 19:45;63.193
03.01.2022 20:00;61.894
03.01.2022 20:15;60.933
03.01.2022 20:30;57.428
03.01.2022 20:45;54.651
03.01.2022 21:00;48.468
03.01.2022 21:15;47.262
03.01.2022 21:30;48.860
03.01.2022 21:45;47.082
03.01.2022 22:00;43.051
03.01.2022 22:15;41.280
03.01.2022 22:30;42.245
03.01.2022 22:45;43.435
03.01.2022 23:00;41.935
03.01.2022 23:15;35.060
03.01.2022 23:30;38.418
03.01.2022 23:45;33.958
04.01.2022 00:00;33.078
04.01.2022 00:15;31.436
04.01.2022 00:30;28.318
04.01.2022 00:45;26.355
04.01.2022 01:00;24.611
04.01.2022 01:15;26.651
04.01.2022 01:30;23.648
04.01.2022 01:45;25.090
04.01.2022 02:00;25.737
04.01.2022 02:15;26.944
04.01.2022 02:30;25.841
04.01.2022 02:45;23.486
04.01.2022 03:00;26.976
04.01.2022 03:15;28.938
04.01.2022 03:30;29.350
04.01.2022 03:45;31.830
04.01.2022 04:00;35.985
04.01.2022 04:15;37.235
04.01.2022 04:30;38.932
04.01.2022 04:45;43.861
04.01.2022 05:00;47.255
04.01.2022 05:15;42.843
04.01.2022 05:30;42.116
04.01.2022 05:45;46.721
04.01.2022 06:00;53.873
04.01.2022 06:15;57.287
04.01.2022 06:30;62.412
04.01.2022 06:45;63.526
04.01.2022 07:00;67.005
04.01.2022 07:15;67.267
04.01.2022 07:30;67.983
04.01.2022 07:45;71.818
04.01.2022 08:00;71.770
04.01.2022 08:15;71.885
04.01.2022 08:30;71.437
04.01.2022 08:45;70.840
04.01.2022 09:00;69.556
04.01.2022 09:15;72.523
04.01.2022 09:30;73.620
04.01.2022 09:45;74.921
04.01.2022 10:00;75.947
04.01.2022 10:15;74.978
04.01.2022 10:30;75.631
04.01.2022 10:45;73.737
04.01.2022 11:00;76.378
04.01.2022 11:15;78.024
04.01.2022 11:30;80.376
04.01.2022 11:45;80.308
04.01.2022 12:00;81.551
04.01.2022 12:15;82.421
04.01.2022 12:30;79.734
04.01.2022 12:45;76.508
04.01.2022 13:00;74.751
04.01.2022 13:15;74.761
04.01.2022 13:30;77.381
04.01.2022 13:45;78.693
04.01.2022 14:00;78.473
04.01.2022 14:15;77.623
04.01.2022 14:30;75.525
04.01.2022 14:45;72.886
04.01.2022 15:00;71.711
04.01.2022 15:15;70.990
04.01.2022 15:30;72.829
04.01.2022 15:45;71.059
04.01.2022 16:00;72.003
04.01.2022 16:15;70.757
04.01.2022 16:30;71.713
04.01.2022 16:45;72.379
04.01.2022 17:00;71.327
04.01.2022 17:15;70.012
04.01.2022 17:30;68.180
04.01.2022 17:45;75.311
04.01.2022 18:00;72.513
04.01.2022 18:15;68.170
04.01.2022 18:30;65.174
04.01.2022 18:45;63.533
04.01.2022 19:00;64.927
04.01.2022 19:15;61.584
04.01.2022 19:30;62.377
04.01.2022 19:45;59.102
04.01.2022 20:00;57.146
04.01.2022 20:15;55.163
04.01.2022 20:30;53.517
04.01.2022 20:45;53.993
04.01.2022 21:00;54.013
04.01.2022 21:15;56.711
04.01.2022 21:30;57.876
04.01.2022 21:45;49.336
04.01.2022 22:00;48.336
04.01.2022 22:15;46.390
04.01.2022 22:30;44.319
04.01.2022 22:45;45.445
04.01.2022 23:00;35.391
04.01.2022 23:15;29.748
04.01.2022 23:30;32.675
04.01.2022 23:45;40.250
05.01.2022 00:00;42.043
05.01.2022 00:15;39.916
05.01.2022 00:30;37.050
05.01.2022 00:45;32.695
05.01.2022 01:00;25.450
05.01.2022 01:15;24.286
05.01.2022 01:30;17.648
05.01.2022 01:45;21.951
05.01.2022 02:00;18.456
05.01.2022 02:15;17.650
05.01.2022 02:30;12.498
05.01.2022 02:45;13.067
05.01.2022 03:00;12.446
05.01.2022 03:15;12.017
05.01.2022 03:30;11.541
05.01.2022 03:45;11.103
05.01.2022 04:00;10.500
05.01.2022 04:15;11.760
05.01.2022 04:30;12.777
05.01.2022 04:45;15.493
05.01.2022 05:00;15.831
05.01.2022 05:15;17.815
05.01.2022 05:30;22.858
05.01.2022 05:45;28.861
05.01.2022 06:00;32.944
05.01.2022 06:15;36.487
05.01.2022 06:30;34.455
05.01.2022 06:45;36.114
05.01.2022 07:00;42.198
05.01.2022 07:15;47.298
05.01.2022 07:30;47.329
05.01.2022 07:45;49.555
05.01.2022 08:00;55.792
05.01.2022 08:15;60.590
05.01.2022 08:30;60.012
05.01.2022 08:45;59.090
05.01.2022 09:00;58.648
05.01.2022 09:15;59.963
05.01.2022 09:30;62.882
05.01.2022 09:45;64.031
05.01.2022 10:00;62.715
05.01.2022 10:15;62.149
05.01.2022 10:30;64.972
05.01.2022 10:45;64.874
05.01.2022 11:00;67.312
05.01.2022 11:15;73.298
05.01.2022 11:30;71.949
05.01.2022 11:45;67.907
05.01.2022 12:00;65.379
05.01.2022 12:15;66.636
05.01.2022 12:30;69.788
05.01.2022 12:45;69.852
05.01.2022 13:00;65.992
05.01.2022 13:15;61.700
05.01.2022 13:30;65.240
05.01.2022 13:45;65.373
05.01.2022 14:00;64.064
05.01.2022 14:15;62.211
05.01.2022 14:30;62.447
05.01.2022 14:45;62.505
05.01.2022 15:00;62.123
05.01.2022 15:15;64.884
05.01.2022 15:30;63.094
05.01.2022 15:45;60.838
05.01.2022 16:00;61.923
05.01.2022 16:15;61.827
05.01.2022 16:30;62.755
05.01.2022 16:45;63.743
05.01.2022 17:00;64.555
05.01.2022 17:15;63.953
05.01.2022 17:30;64.876
05.01.2022 17:45;63.030
05.01.2022 18:00;62.559
05.01.2022 18:15;61.679
05.01.2022 18:30;61.540
05.01.2022 18:45;60.938
05.01.2022 19:00;61.747
05.01.2022 19:15;59.759
05.01.2022 19:30;58.052
05.01.2022 19:45;54.114
05.01.2022 20:00;50.748
05.01.2022 20:15;47.908
05.01.2022 20:30;44.638
05.01.2022 20:45;42.908
05.01.2022 21:00;54.056
05.01.2022 21:15;48.153
05.01.2022 21:30;46.818
05.01.2022 21:45;52.627
05.01.2022 22:00;41.157
05.01.2022 22:15;53.548
05.01.2022 22:30;42.945
05.01.2022 22:45;49.756
05.01.2022 23:00;46.957
05.01.2022 23:15;53.070
05.01.2022 23:30;51.718
05.01.2022 23:45;50.099
06.01.2022 00:00;47.602
06.01.2022 00:15;46.337
06.01.2022 00:30;45.523
06.01.2022 00:45;45.735
06.01.2022 01:00;47.137
06.01.2022 01:15;45.789
06.01.2022 01:30;41.717
06.01.2022 01:45;32.902
06.01.2022 02:00;31.635
06.01.2022 02:15;36.091
06.01.2022 02:30;46.483
06.01.2022 02:45;48.082
06.01.2022 03:00;49.442
06.01.2022 03:15;50.733
06.01.2022 03:30;52.215
06.01.2022 03:45;53.556
06.01.2022 04:00;53.292
06.01.2022 04:15;45.768
06.01.2022 04:30;47.054
06.01.2022 04:45;48.686
06.01.2022 05:00;51.622
06.01.2022 05:15;51.552
06.01.2022 05:30;50.638
06.01.2022 05:45;52.640
06.01.2022 06:00;57.457
06.01.2022 06:15;61.516
06.01.2022 06:30;65.780
06.01.2022 06:45;68.231
06.01.2022 07:00;71.122
06.01.2022 07:15;72.667
06.01.2022 07:30;75.452
06.01.2022 07:45;76.985
06.01.2022 08:00;79.566
06.01.2022 08:15;79.077
06.01.2022 08:30;78.797
06.01.2022 08:45;79.930
06.01.2022 09:00;78.768
06.01.2022 09:15;79.859
06.01.2022 09:30;81.358
06.01.2022 09:45;82.595
06.01.2022 10:00;83.084
06.01.2022 10:15;82.474
06.01.2022 10:30;82.841
06.01.2022 10:45;83.127
06.01.2022 11:00;83.016
06.01.2022 11:15;83.330
06.01.2022 11:30;83.086
06.01.2022 11:45;82.799
06.01.2022 12:00;82.552
06.01.2022 12:15;81.561
06.01.2022 12:30;82.126
06.01.2022 12:45;81.977
06.01.2022 13:00;80.975
06.01.2022 13:15;81.139
06.01.2022 13:30;79.213
06.01.2022 13:45;78.267
06.01.2022 14:00;75.127
06.01.2022 14:15;77.696
06.01.2022 14:30;77.920
06.01.2022 14:45;78.498
06.01.2022 15:00;75.652
06.01.2022 15:15;75.934
06.01.2022 15:30;75.671
06.01.2022 15:45;76.243
06.01.2022 16:00;74.436
06.01.2022 16:15;74.432
06.01.2022 16:30;75.671
06.01.2022 16:45;78.093
06.01.2022 17:00;73.458
06.01.2022 17:15;74.240
06.01.2022 17:30;74.509
06.01.2022 17:45;72.365
06.01.2022 18:00;70.341
06.01.2022 18:15;68.491
06.01.2022 18:30;69.812
06.01.2022 18:45;67.853
06.01.2022 19:00;64.291
06.01.2022 19:15;65.118
06.01.2022 19:30;62.443
06.01.2022 19:45;58.962
06.01.2022 20:00;60.492
06.01.2022 20:15;58.975
06.01.2022 20:30;57.285
06.01.2022 20:45;56.739
06.01.2022 21:00;55.309
06.01.2022 21:15;54.672
06.01.2022 21:30;49.004
06.01.2022 21:45;46.957
06.01.2022 22:00;46.712
06.01.2022 22:15;42.240
06.01.2022 22:30;43.669
06.01.2022 22:45;39.484
06.01.2022 23:00;36.046
06.01.2022 23:15;36.704
06.01.2022 23:30;35.972
06.01.2022 23:45;36.134
07.01.2022 00:00;33.854
07.01.2022 00:15;33.396
07.01.2022 00:30;32.237
07.01.2022 00:45;30.542
07.01.2022 01:00;27.047
07.01.2022 01:15;32.131
07.01.2022 01:30;30.434
07.01.2022 01:45;29.567
07.01.2022 02:00;29.244
07.01.2022 02:15;27.142
07.01.2022 02:30;23.459
07.01.2022 02:45;26.305
07.01.2022 03:00;27.336
07.01.2022 03:15;23.461
07.01.2022 03:30;20.930
07.01.2022 03:45;18.308
07.01.2022 04:00;22.932
07.01.2022 04:15;27.836
07.01.2022 04:30;27.470
07.01.2022 04:45;26.552
07.01.2022 05:00;29.615
07.01.2022 05:15;31.589
07.01.2022 05:30;32.078
07.01.2022 05:45;35.298
07.01.2022 06:00;38.779
07.01.2022 06:15;41.352
07.01.2022 06:30;42.614
07.01.2022 06:45;45.515
07.01.2022 07:00;48.798
07.01.2022 07:15;50.614
07.01.2022 07:30;55.428
07.01.2022 07:45;57.920
07.01.2022 08:00;59.671
07.01.2022 08:15;60.741
07.01.2022 08:30;61.710
07.01.2022 08:45;62.453
07.01.2022 09:00;62.741
07.01.2022 09:15;64.361
07.01.2022 09:30;64.006
07.01.2022 09:45;65.608
07.01.2022 10:00;64.776
07.01.2022 10:15;67.238
07.01.2022 10:30;68.497
07.01.2022 10:45;69.555
07.01.2022 11:00;70.570
07.01.2022 11:15;70.933
07.01.2022 11:30;71.385
07.01.2022 11:45;71.316
07.01.2022 12:00;71.426
07.01.2022 12:15;70.266
07.01.2022 12:30;71.665
07.01.2022 12:45;70.627
07.01.2022 13:00;70.446
07.01.2022 13:15;71.322
07.01.2022 13:30;68.815
07.01.2022 13:45;67.699
07.01.2022 14:00;66.661
07.01.2022 14:15;69.312
07.01.2022 14:30;66.215
07.01.2022 14:45;62.037
07.01.2022 15:00;63.112
07.01.2022 15:15;63.971
07.01.2022 15:30;66.888
07.01.2022 15:45;66.246
07.01.2022 16:00;66.565
07.01.2022 16:15;66.859
07.01.2022 16:30;68.240
07.01.2022 16:45;72.656
07.01.2022 17:00;69.579
07.01.2022 17:15;69.170
07.01.2022 17:30;69.418
07.01.2022 17:45;69.849
07.01.2022 18:00;67.500
07.01.2022 18:15;66.062
07.01.2022 18:30;66.772
07.01.2022 18:45;65.078
07.01.2022 19:00;63.408
07.01.2022 19:15;64.457
07.01.2022 19:30;62.777
07.01.2022 19:45;65.030
07.01.2022 20:00;66.297
07.01.2022 20:15;65.886
07.01.2022 20:30;61.827
07.01.2022 20:45;59.409
07.01.2022 21:00;56.769
07.01.2022 21:15;55.173
07.01.2022 21:30;53.489
07.01.2022 21:45;46.503
07.01.2022 22:00;47.008
07.01.2022 22:15;51.680
07.01.2022 22:30;50.522
07.01.2022 22:45;50.187
07.01.2022 23:00;48.052
07.01.2022 23:15;48.834
07.01.2022 23:30;48.866
07.01.2022 23:45;49.013
08.01.2022 00:00;47.413
08.01.2022 00:15;42.995
08.01.2022 00:30;40.904
08.01.2022 00:45;40.415
08.01.2022 01:00;39.199
08.01.2022 01:15;30.943
08.01.2022 01:30;33.442
08.01.2022 01:45;29.202
08.01.2022 02:00;33.961
08.01.2022 02:15;28.722
08.01.2022 02:30;35.415
08.01.2022 02:45;34.254
08.01.2022 03:00;29.177
08.01.2022 03:15;37.245
08.01.2022 03:30;41.230
08.01.2022 03:45;39.524
08.01.2022 04:00;43.011
08.01.2022 04:15;41.904
08.01.2022 04:30;37.613
08.01.2022 04:45;38.367
08.01.2022 05:00;42.116
08.01.2022 05:15;45.702
08.01.2022 05:30;44.862
08.01.2022 05:45;40.886
08.01.2022 06:00;44.216
08.01.2022 06:15;46.004
08.01.2022 06:30;46.916
08.01.2022 06:45;46.785
08.01.2022 07:00;44.680
08.01.2022 07:15;46.632
08.01.2022 07:30;46.334
08.01.2022 07:45;48.367
08.01.2022 08:00;47.755
08.01.2022 08:15;46.899
08.01.2022 08:30;47.972
08.01.2022 08:45;48.492
08.01.2022 09:00;49.516
08.01.2022 09:15;52.786
08.01.2022 09:30;51.320
08.01.2022 09:45;49.994
08.01.2022 10:00;50.541
08.01.2022 10:15;53.926
08.01.2022 10:30;54.516
08.01.2022 10:45;55.984
08.01.2022 11:00;55.350
08.01.2022 11:15;55.719
08.01.2022 11:30;57.464
08.01.2022 11:45;57.072
08.01.2022 12:00;56.585
08.01.2022 12:15;58.937
08.01.2022 12:30;58.555
08.01.2022 12:45;58.637
08.01.2022 13:00;57.413
08.01.2022 13:15;58.758
08.01.2022 13:30;54.523
08.01.2022 13:45;54.355
08.01.2022 14:00;53.145
08.01.2022 14:15;53.303
08.01.2022 14:30;54.932
08.01.2022 14:45;52.730
08.01.2022 15:00;45.915
08.01.2022 15:15;47.146
08.01.2022 15:30;49.642
08.01.2022 15:45;47.584
08.01.2022 16:00;48.987
08.01.2022 16:15;50.336
08.01.2022 16:30;51.541
08.01.2022 16:45;53.027
08.01.2022 17:00;53.496
08.01.2022 17:15;53.139
08.01.2022 17:30;53.112
08.01.2022 17:45;52.033
08.01.2022 18:00;52.351
08.01.2022 18:15;52.866
08.01.2022 18:30;50.520
08.01.2022 18:45;51.342
08.01.2022 19:00;49.227
08.01.2022 19:15;48.609
08.01.2022 19:30;45.548
08.01.2022 19:45;44.310
08.01.2022 20:00;42.183
08.01.2022 20:15;39.514
08.01.2022 20:30;38.822
08.01.2022 20:45;38.673
08.01.2022 21:00;34.755
08.01.2022 21:15;32.254
08.01.2022 21:30;30.977
08.01.2022 21:45;31.842
08.01.2022 22:00;27.513
08.01.2022 22:15;28.830
08.01.2022 22:30;29.729
08.01.2022 22:45;27.726
08.01.2022 23:00;25.616
08.01.2022 23:15;24.213
08.01.2022 23:30;21.369
08.01.2022 23:45;18.037
09.01.2022 00:00;16.357
09.01.2022 00:15;16.518
09.01.2022 00:30;13.460
09.01.2022 00:45;14.263
09.01.2022 01:00;20.385
09.01.2022 01:15;22.146
09.01.2022 01:30;21.933
09.01.2022 01:45;22.137
09.01.2022 02:00;21.659
09.01.2022 02:15;21.748
09.01.2022 02:30;22.075
09.01.2022 02:45;22.351
09.01.2022 03:00;26.715
09.01.2022 03:15;29.538
09.01.2022 03:30;28.663
09.01.2022 03:45;31.814
09.01.2022 04:00;33.808
09.01.2022 04:15;33.987
09.01.2022 04:30;34.593
09.01.2022 04:45;37.083
09.01.2022 05:00;37.631
09.01.2022 05:15;39.401
09.01.2022 05:30;35.526
09.01.2022 05:45;37.851
09.01.2022 06:00;39.251
09.01.2022 06:15;39.091
09.01.2022 06:30;39.659
09.01.2022 06:45;41.161
09.01.2022 07:00;42.235
09.01.2022 07:15;42.882
09.01.2022 07:30;45.230
09.01.2022 07:45;45.928
09.01.2022 08:00;47.687
09.01.2022 08:15;50.355
09.01.2022 08:30;50.558
09.01.2022 08:45;48.125
09.01.2022 09:00;49.101
09.01.2022 09:15;49.269
09.01.2022 09:30;52.619
09.01.2022 09:45;49.024
09.01.2022 10:00;43.605
09.01.2022 10:15;52.005
09.01.2022 10:30;53.235
09.01.2022 10:45;51.791
09.01.2022 11:00;52.614
09.01.2022 11:15;53.758
09.01.2022 11:30;53.262
09.01.2022 11:45;52.366
09.01.2022 12:00;54.443
09.01.2022 12:15;54.208
09.01.2022 12:30;50.988
09.01.2022 12:45;50.274
09.01.2022 13:00;47.879
09.01.2022 13:15;51.620
09.01.2022 13:30;53.302
09.01.2022 13:45;52.180
09.01.2022 14:00;52.219
09.01.2022 14:15;51.681
09.01.2022 14:30;50.390
09.01.2022 14:45;50.144
09.01.2022 15:00;51.209
09.01.2022 15:15;52.138
09.01.2022 15:30;55.528
09.01.2022 15:45;56.189
09.01.2022 16:00;57.171
09.01.2022 16:15;58.385
09.01.2022 16:30;58.791
09.01.2022 16:45;63.238
09.01.2022 17:00;63.239
09.01.2022 17:15;63.248
09.01.2022 17:30;61.772
09.01.2022 17:45;62.667
09.01.2022 18:00;62.665
09.01.2022 18:15;66.025
09.01.2022 18:30;63.488
09.01.2022 18:45;64.702
09.01.2022 19:00;63.095
09.01.2022 19:15;63.393
09.01.2022 19:30;62.103
09.01.2022 19:45;60.416
09.01.2022 20:00;60.339
09.01.2022 20:15;58.688
09.01.2022 20:30;57.399
09.01.2022 20:45;56.643
09.01.2022 21:00;55.408
09.01.2022 21:15;55.221
09.01.2022 21:30;53.749
09.01.2022 21:45;53.852
09.01.2022 22:00;53.692
09.01.2022 22:15;53.325
09.01.2022 22:30;51.123
09.01.2022 22:45;49.773
09.01.2022 23:00;49.572
09.01.2022 23:15;47.934
09.01.2022 23:30;47.079
09.01.2022 23:45;45.509
10.01.2022 00:00;44.693
10.01.2022 00:15;47.708
10.01.2022 00:30;45.946
10.01.2022 00:45;48.161
10.01.2022 01:00;47.545
10.01.2022 01:15;48.464
10.01.2022 01:30;46.947
10.01.2022 01:45;46.384
10.01.2022 02:00;48.819
10.01.2022 02:15;48.537
10.01.2022 02:30;47.729
10.01.2022 02:45;47.661
10.01.2022 03:00;44.610
10.01.2022 03:15;47.616
10.01.2022 03:30;47.359
10.01.2022 03:45;47.008
10.01.2022 04:00;47.319
10.01.2022 04:15;47.648
10.01.2022 04:30;48.908
10.01.2022 04:45;49.661
10.01.2022 05:00;51.806
10.01.2022 05:15;52.549
10.01.2022 05:30;54.308
10.01.2022 05:45;56.172
10.01.2022 06:00;59.824
10.01.2022 06:15;64.983
10.01.2022 06:30;65.757
10.01.2022 06:45;68.356
10.01.2022 07:00;72.424
10.01.2022 07:15;73.269
10.01.2022 07:30;74.705
10.01.2022 07:45;77.047
10.01.2022 08:00;80.961
10.01.2022 08:15;82.327
10.01.2022 08:30;81.431
10.01.2022 08:45;81.101
10.01.2022 09:00;80.594
10.01.2022 09:15;81.008
10.01.2022 09:30;81.805
10.01.2022 09:45;83.089
10.01.2022 10:00;83.434
10.01.2022 10:15;83.549
10.01.2022 10:30;85.259
10.01.2022 10:45;85.971
10.01.2022 11:00;85.244
10.01.2022 11:15;84.680
10.01.2022 11:30;85.196
10.01.2022 11:45;85.800
10.01.2022 12:00;86.216
10.01.2022 12:15;85.231
10.01.2022 12:30;85.788
10.01.2022 12:45;86.284
10.01.2022 13:00;85.155
10.01.2022 13:15;85.242
10.01.2022 13:30;83.585
10.01.2022 13:45;82.342
10.01.2022 14:00;83.036
10.01.2022 14:15;83.531
10.01.2022 14:30;82.974
10.01.2022 14:45;83.445
10.01.2022 15:00;83.523
10.01.2022 15:15;83.949
10.01.2022 15:30;82.307
10.01.2022 15:45;82.345
10.01.2022 16:00;83.060
10.01.2022 16:15;83.265
10.01.2022 16:30;84.381
10.01.2022 16:45;85.049
10.01.2022 17:00;84.837
10.01.2022 17:15;84.757
10.01.2022 17:30;84.942
10.01.2022 17:45;84.562
10.01.2022 18:00;83.803
10.01.2022 18:15;83.576
10.01.2022 18:30;82.324
10.01.2022 18:45;82.340
10.01.2022 19:00;80.608
10.01.2022 19:15;79.879
10.01.2022 19:30;78.834
10.01.2022 19:45;78.877
10.01.2022 20:00;77.379
10.01.2022 20:15;75.333
10.01.2022 20:30;73.893
10.01.2022 20:45;72.299
10.01.2022 21:00;71.336
10.01.2022 21:15;70.217
10.01.2022 21:30;67.865
10.01.2022 21:45;65.904